• In Deutschland
  • Länderverzeichnis
  • Für 7 Tage
  • Wassertemperatur
  • Satellitenkarten
  • Wetterkarte
  • Widgets
  • user-avatar
    Anmelden

    Stündliche Wetter Bobo-Dioulasso

    Heute, 16 August, Donnerstag

    Zeit Temperatur Niederschläge Wind Luftdruck Luftfeuchtigkeit
    00:00 +25°C° 0 mm 1 m/S 725 mmHg 85%
    01:00 +25°C° 0 mm 1 m/S 725 mmHg 86%
    02:00 +25°C° 0 mm 2 m/S 724 mmHg 87%
    03:00 +25°C° 0 mm 2 m/S 724 mmHg 88%
    04:00 +24°C° 0 mm 2 m/S 724 mmHg 89%
    05:00 +24°C° 0 mm 2 m/S 725 mmHg 90%
    06:00 +24°C° 0 mm 2 m/S 725 mmHg 90%
    07:00 +25°C° 0 mm 2 m/S 725 mmHg 85%
    08:00 +26°C° 0 mm 3 m/S 725 mmHg 80%
    09:00 +28°C° 0 mm 4 m/S 726 mmHg 75%
    10:00 +29°C° 0 mm 3 m/S 726 mmHg 71%
    11:00 +30°C° 0 mm 3 m/S 726 mmHg 67%
    12:00 +31°C° 0 mm 3 m/S 725 mmHg 62%
    13:00 +33°C° 0,2 mm 3 m/S 725 mmHg 61%
    14:00 +33°C° 0,2 mm 3 m/S 724 mmHg 60%
    15:00 +32°C° 0,2 mm 2 m/S 723 mmHg 59%
    16:00 +31°C° 0,2 mm 2 m/S 723 mmHg 64%
    17:00 +31°C° 0,2 mm 2 m/S 723 mmHg 69%
    18:00 +30°C° 0,2 mm 1 m/S 723 mmHg 74%
    19:00 +29°C° 0,5 mm 1 m/S 723 mmHg 77%
    20:00 +28°C° 0,5 mm 1 m/S 724 mmHg 80%
    21:00 +27°C° 0,5 mm 1 m/S 724 mmHg 83%
    22:00 +26°C° 1,2 mm 1 m/S 725 mmHg 85%
    23:00 +26°C° 1,2 mm 1 m/S 725 mmHg 86%

    Morgen, 17 August, Freitag

    Zeit Temperatur Niederschläge Wind Luftdruck Luftfeuchtigkeit
    00:00 +26°C° 1,2 mm 1 m/S 725 mmHg 88%
    01:00 +25°C° 0,9 mm 1 m/S 725 mmHg 89%
    02:00 +25°C° 0,9 mm 1 m/S 724 mmHg 89%
    03:00 +25°C° 0,9 mm 1 m/S 724 mmHg 90%
    04:00 +25°C° 0,8 mm 2 m/S 724 mmHg 91%
    05:00 +24°C° 0,8 mm 2 m/S 724 mmHg 91%
    06:00 +24°C° 0,8 mm 2 m/S 724 mmHg 91%
    07:00 +25°C° 0,6 mm 2 m/S 725 mmHg 88%
    08:00 +26°C° 0,6 mm 3 m/S 725 mmHg 85%
    09:00 +27°C° 0,6 mm 4 m/S 725 mmHg 82%
    10:00 +28°C° 0,6 mm 4 m/S 725 mmHg 77%
    11:00 +29°C° 0,6 mm 4 m/S 725 mmHg 73%
    12:00 +30°C° 0,6 mm 3 m/S 725 mmHg 69%
    13:00 +31°C° 0,5 mm 3 m/S 724 mmHg 68%
    14:00 +31°C° 0,5 mm 3 m/S 723 mmHg 67%
    15:00 +31°C° 0,5 mm 2 m/S 722 mmHg 66%
    16:00 +30°C° 0,7 mm 2 m/S 722 mmHg 71%
    17:00 +29°C° 0,7 mm 1 m/S 722 mmHg 75%
    18:00 +29°C° 0,7 mm 1 m/S 722 mmHg 79%
    19:00 +28°C° 0,1 mm 1 m/S 723 mmHg 81%
    20:00 +27°C° 0,1 mm 1 m/S 723 mmHg 83%
    21:00 +26°C° 0,1 mm 1 m/S 724 mmHg 86%
    22:00 +26°C° 0 mm 2 m/S 723 mmHg 87%
    23:00 +25°C° 0 mm 2 m/S 723 mmHg 88%

    übermorgen, 18 August, Samstag

    Zeit Temperatur Niederschläge Wind Luftdruck Luftfeuchtigkeit
    00:00 +25°C° 0 mm 2 m/S 723 mmHg 89%
    01:00 +25°C° 0 mm 2 m/S 723 mmHg 89%
    02:00 +25°C° 0 mm 2 m/S 722 mmHg 88%
    03:00 +25°C° 0 mm 2 m/S 722 mmHg 88%
    04:00 +24°C° 0 mm 2 m/S 722 mmHg 89%
    05:00 +24°C° 0 mm 2 m/S 722 mmHg 89%
    06:00 +24°C° 0 mm 2 m/S 723 mmHg 89%
    07:00 +25°C° 0 mm 2 m/S 723 mmHg 88%
    08:00 +25°C° 0 mm 3 m/S 724 mmHg 86%
    09:00 +26°C° 0 mm 3 m/S 724 mmHg 85%
    10:00 +27°C° 0 mm 3 m/S 724 mmHg 81%
    11:00 +28°C° 0 mm 3 m/S 724 mmHg 77%
    12:00 +28°C° 0 mm 3 m/S 724 mmHg 73%
    13:00 +29°C° 0,1 mm 3 m/S 723 mmHg 72%
    14:00 +30°C° 0,1 mm 3 m/S 722 mmHg 70%
    15:00 +30°C° 0,1 mm 3 m/S 722 mmHg 68%
    16:00 +29°C° 0,4 mm 3 m/S 721 mmHg 73%
    17:00 +29°C° 0,4 mm 2 m/S 721 mmHg 77%
    18:00 +28°C° 0,4 mm 1 m/S 721 mmHg 81%
    19:00 +27°C° 0,1 mm 1 m/S 722 mmHg 84%
    20:00 +26°C° 0,1 mm 1 m/S 722 mmHg 86%
    21:00 +26°C° 0,1 mm 1 m/S 723 mmHg 89%
    22:00 +25°C° 0,3 mm 2 m/S 723 mmHg 90%
    23:00 +25°C° 0,3 mm 2 m/S 723 mmHg 92%

    19 August, Sonntag

    Zeit Temperatur Niederschläge Wind Luftdruck Luftfeuchtigkeit
    00:00 +25°C° 0,3 mm 2 m/S 723 mmHg 93%
    01:00 +25°C° 1,7 mm 2 m/S 723 mmHg 93%
    02:00 +25°C° 1,7 mm 3 m/S 723 mmHg 92%
    03:00 +24°C° 1,7 mm 3 m/S 722 mmHg 92%
    04:00 +24°C° 1,2 mm 3 m/S 722 mmHg 92%
    05:00 +24°C° 1,2 mm 3 m/S 723 mmHg 92%
    06:00 +24°C° 1,2 mm 3 m/S 723 mmHg 93%
    07:00 +24°C° 0,1 mm 3 m/S 723 mmHg 90%
    08:00 +25°C° 0,1 mm 3 m/S 724 mmHg 88%
    09:00 +26°C° 0,1 mm 3 m/S 724 mmHg 86%
    10:00 +27°C° 0 mm 3 m/S 724 mmHg 82%
    11:00 +28°C° 0 mm 3 m/S 724 mmHg 77%
    12:00 +29°C° 0 mm 3 m/S 724 mmHg 73%
    13:00 +30°C° 0 mm 2 m/S 723 mmHg 70%
    14:00 +31°C° 0 mm 2 m/S 723 mmHg 66%
    15:00 +31°C° 0 mm 2 m/S 722 mmHg 63%
    16:00 +30°C° 0,8 mm 2 m/S 722 mmHg 68%
    17:00 +29°C° 0,8 mm 2 m/S 722 mmHg 74%
    18:00 +28°C° 0,8 mm 1 m/S 722 mmHg 80%
    19:00 +27°C° 1,8 mm 2 m/S 723 mmHg 83%
    20:00 +26°C° 1,8 mm 2 m/S 724 mmHg 87%
    21:00 +25°C° 1,8 mm 2 m/S 724 mmHg 91%
    22:00 +25°C° 2,1 mm 2 m/S 724 mmHg 91%
    23:00 +25°C° 2,1 mm 2 m/S 724 mmHg 91%

    20 August, Montag

    Zeit Temperatur Niederschläge Wind Luftdruck Luftfeuchtigkeit
    00:00 +25°C° 2,1 mm 3 m/S 724 mmHg 90%
    01:00 +24°C° 0,6 mm 3 m/S 724 mmHg 91%
    02:00 +24°C° 0,6 mm 3 m/S 724 mmHg 92%
    03:00 +24°C° 0,6 mm 3 m/S 723 mmHg 93%
    04:00 +24°C° 0,2 mm 3 m/S 724 mmHg 94%
    05:00 +22°C° 0,2 mm 3 m/S 724 mmHg 94%
    06:00 +23°C° 0,2 mm 2 m/S 724 mmHg 95%
    07:00 +24°C° 0 mm 3 m/S 725 mmHg 91%
    08:00 +25°C° 0 mm 3 m/S 725 mmHg 87%
    09:00 +26°C° 0 mm 4 m/S 726 mmHg 83%
    10:00 +27°C° 0,5 mm 4 m/S 725 mmHg 80%
    11:00 +28°C° 0,5 mm 3 m/S 725 mmHg 77%
    12:00 +29°C° 0,5 mm 3 m/S 725 mmHg 74%
    13:00 +30°C° 1,1 mm 3 m/S 724 mmHg 73%
    14:00 +30°C° 1,1 mm 3 m/S 723 mmHg 72%
    15:00 +30°C° 1,1 mm 2 m/S 722 mmHg 71%
    16:00 +29°C° 1,7 mm 2 m/S 722 mmHg 76%
    17:00 +28°C° 1,7 mm 2 m/S 722 mmHg 81%
    18:00 +27°C° 1,7 mm 2 m/S 722 mmHg 86%
    19:00 +27°C° 1,3 mm 2 m/S 723 mmHg 88%
    20:00 +26°C° 1,3 mm 2 m/S 723 mmHg 90%
    21:00 +25°C° 1,3 mm 2 m/S 724 mmHg 92%
    22:00 +25°C° 1,9 mm 2 m/S 724 mmHg 92%
    23:00 +25°C° 1,9 mm 2 m/S 724 mmHg 92%

    21 August, Dienstag

    Zeit Temperatur Niederschläge Wind Luftdruck Luftfeuchtigkeit
    00:00 +25°C° 1,9 mm 2 m/S 724 mmHg 92%
    01:00 +24°C° 0,5 mm 3 m/S 724 mmHg 92%
    02:00 +24°C° 0,5 mm 3 m/S 724 mmHg 93%
    03:00 +24°C° 0,5 mm 3 m/S 723 mmHg 93%
    04:00 +24°C° 0 mm 3 m/S 724 mmHg 93%
    05:00 +24°C° 0 mm 3 m/S 724 mmHg 93%
    06:00 +23°C° 0 mm 2 m/S 724 mmHg 93%
    07:00 +24°C° 0,1 mm 3 m/S 725 mmHg 90%
    08:00 +25°C° 0,1 mm 3 m/S 725 mmHg 87%
    09:00 +26°C° 0,1 mm 4 m/S 725 mmHg 84%
    10:00 +27°C° 0 mm 4 m/S 725 mmHg 78%
    11:00 +29°C° 0 mm 4 m/S 725 mmHg 73%
    12:00 +30°C° 0 mm 4 m/S 724 mmHg 68%
    13:00 +30°C° 0,7 mm 4 m/S 723 mmHg 70%
    14:00 +30°C° 0,7 mm 4 m/S 723 mmHg 72%
    15:00 +30°C° 0,7 mm 4 m/S 722 mmHg 74%
    16:00 +29°C° 1,3 mm 3 m/S 722 mmHg 78%
    17:00 +28°C° 1,3 mm 2 m/S 722 mmHg 83%
    18:00 +27°C° 1,3 mm 1 m/S 722 mmHg 87%
    19:00 +27°C° 0,5 mm 1 m/S 723 mmHg 89%
    20:00 +26°C° 0,5 mm 1 m/S 723 mmHg 90%
    21:00 +25°C° 0,5 mm 1 m/S 724 mmHg 92%
    22:00 +25°C° 0,9 mm 2 m/S 724 mmHg 92%
    23:00 +25°C° 0,9 mm 2 m/S 724 mmHg 92%
    Mehr zeigen